RH
78 76 74 71 69 67 65 62 58 53 48 42 36 30 26 21 18 15 13 12 11 10 10 10 10 10 10 10 10 10 10 11 11 12 12 13 13 14 14 14 15 15 15 16 16 16 17 17 17 17 17 18 18 20 22 25 27 30 32 34 35 36 37 37 38 37 37 37 37 37 38 40 45 50 56 61 64 64 61 57 52 47 43 42 42 42
76 74 72 70 69 67 66 63 58 54 49 44 38 32 26 21 18 15 13 12 11 10 10 10 10 10 10 10 10 10 10 10 11 11 12 12 13 14 14 14 15 15 16 17 18 18 19 19 19 19 19 19 20 22 24 26 29 32 34 36 38 39 40 40 40 39 39 38 38 39 40 42 46 52 57 64 66 65 62 56 51 46 43 43 43 44
76 74 71 70 69 68 66 63 60 55 50 45 39 33 26 22 18 15 13 12 11 11 11 10 10 10 10 10 10 10 10 10 10 11 12 12 13 14 14 15 15 16 17 18 20 21 22 22 22 21 20 20 20 22 24 26 29 32 35 38 40 41 42 42 42 42 42 42 42 42 42 44 47 50 52 54 56 57 56 55 53 51 48 46 46 47
75 73 71 70 69 68 66 64 60 57 52 46 40 34 27 22 18 15 13 12 12 11 11 11 11 11 10 10 10 10 10 10 10 11 12 12 13 14 15 16 16 18 19 20 22 23 24 24 23 22 20 20 21 22 24 26 29 32 34 38 40 42 43 44 44 44 44 44 44 45 46 48 50 53 56 58 58 58 58 60 60 58 55 51 50 49
75 74 72 71 69 68 66 64 61 58 54 48 42 35 28 22 18 15 13 12 12 12 12 11 11 11 11 10 10 10 10 10 10 11 12 13 14 15 16 17 18 19 20 22 23 24 25 24 24 22 22 21 22 22 24 26 29 32 35 38 40 42 44 45 46 46 47 47 48 49 50 52 55 58 62 64 64 64 65 67 67 65 60 56 53 51
76 75 74 72 70 68 66 64 62 58 55 50 44 37 30 24 19 15 13 12 12 12 12 12 12 11 11 11 10 10 10 10 10 11 12 13 14 16 17 18 19 21 22 24 25 26 26 26 24 24 23 22 22 24 25 27 30 33 36 38 40 42 44 46 47 48 49 50 51 52 54 56 58 60 64 67 67 66 64 65 66 66 65 61 58 54
76 76 74 72 70 68 66 64 62 60 56 52 46 40 32 26 20 16 13 13 12 12 12 12 12 12 11 11 10 10 10 10 10 11 12 14 15 17 18 19 20 22 24 26 26 27 27 26 26 24 24 24 24 24 26 28 32 34 38 40 42 44 46 47 48 49 50 52 54 56 57 58 60 62 63 65 66 65 63 61 62 64 67 66 62 58
76 76 74 72 70 68 67 65 63 60 57 52 47 42 35 28 22 17 14 13 13 13 12 12 12 12 11 11 10 10 10 10 10 11 12 14 16 17 18 20 22 24 25 26 28 28 28 28 27 26 26 24 24 26 27 30 33 36 40 42 44 46 48 49 50 51 53 55 57 58 60 61 62 63 64 64 64 64 62 60 58 59 63 66 66 63
77 76 74 72 71 69 67 65 63 60 58 53 48 43 37 30 24 19 16 14 14 13 13 12 12 12 11 11 11 10 10 10 11 11 12 14 16 18 19 21 23 24 26 28 29 29 29 29 28 28 26 26 26 26 28 32 35 39 42 45 48 49 51 52 53 54 56 58 60 61 62 63 64 65 66 66 65 63 60 56 53 53 56 62 63 62
77 76 74 73 71 70 68 66 63 61 58 55 50 45 39 32 26 21 17 16 14 14 13 13 12 12 11 11 11 11 11 11 11 12 13 14 16 18 20 22 24 26 27 28 29 30 30 30 30 29 28 26 26 28 30 33 37 40 44 48 50 52 53 54 56 58 59 61 62 63 64 65 66 67 67 66 65 64 64 63 60 58 58 58 57 57
77 76 74 73 72 70 68 66 64 62 60 56 52 46 40 33 26 22 18 16 15 14 14 13 13 12 11 11 11 11 11 11 11 12 12 14 16 18 21 23 24 26 27 28 29 30 30 31 30 30 28 27 27 28 31 34 39 43 47 50 53 54 56 57 58 60 62 64 65 66 67 69 71 72 72 72 73 74 76 74 73 71 68 62 58 57
77 76 75 74 72 71 69 67 65 62 60 56 52 48 42 34 28 22 19 17 16 15 14 14 13 12 12 12 12 12 12 12 12 12 12 13 15 18 20 22 24 26 27 28 29 30 31 32 31 30 28 28 28 29 32 36 40 45 49 52 55 56 58 60 61 63 65 66 67 68 69 72 74 77 81 78 79 80 80 78 77 77 76 72 70 68
77 76 76 74 73 72 70 68 66 63 60 57 53 48 42 36 29 24 20 18 17 16 15 14 13 13 12 12 12 12 12 12 12 12 12 13 15 17 20 22 24 25 26 28 29 30 32 32 32 30 29 28 28 30 32 37 42 46 50 54 56 58 59 60 62 64 66 67 68 68 69 70 71 72 74 74 74 74 74 74 76 78 76 76 76 76
78 77 77 76 74 72 70 69 66 63 60 57 53 48 43 38 33 28 24 22 19 17 16 15 14 13 13 13 13 13 13 13 13 13 13 13 15 18 20 22 24 26 27 28 30 31 33 33 32 31 29 28 28 30 33 38 42 47 52 55 57 58 60 61 63 65 66 67 68 68 68 68 67 67 67 67 67 66 65 64 66 69 71 72 70 67
78 78 78 76 74 72 71 69 67 64 60 57 54 50 47 44 40 35 30 25 21 18 16 15 14 14 13 13 14 14 14 14 14 14 13 14 15 18 21 23 24 26 28 30 31 33 34 35 34 32 30 29 29 30 34 39 44 49 54 56 58 60 61 63 65 66 68 68 68 68 67 66 66 65 65 64 64 62 58 56 57 57 55 54 51 47
79 79 78 76 74 73 72 70 67 64 60 58 55 53 52 50 46 40 32 26 21 18 16 16 15 14 13 14 14 15 16 16 15 15 14 14 15 17 21 24 25 26 28 30 32 34 36 36 35 33 31 30 30 32 35 40 46 52 56 58 61 62 64 66 67 68 69 68 68 68 67 66 64 63 62 60 58 59 62 67 66 62 57 52 46 39
79 79 78 76 74 73 72 70 67 64 60 58 56 56 56 53 46 38 29 24 20 18 18 17 16 15 14 13 14 16 17 18 17 16 15 14 14 16 20 24 26 28 28 31 33 36 38 38 36 35 32 31 30 32 36 42 48 54 58 61 62 64 66 67 68 69 69 69 68 67 66 64 63 62 60 66 71 74 77 77 76 74 74 71 66 58
79 78 78 76 75 74 73 71 68 64 60 59 58 58 56 48 40 32 27 24 22 20 19 18 17 16 16 15 15 16 18 18 18 17 16 15 14 16 20 24 27 29 30 31 34 37 39 39 38 36 34 32 31 32 36 43 50 56 60 62 64 65 67 68 69 69 69 68 67 66 65 63 62 61 61 72 78 80 79 79 78 77 78 76 73 68
78 78 78 76 76 75 74 71 68 65 62 62 60 55 47 40 36 33 30 27 24 22 20 19 18 18 17 16 17 18 19 20 19 18 17 16 15 16 20 24 27 29 29 31 34 37 39 39 38 37 35 33 32 33 36 44 51 58 62 64 66 66 67 68 68 68 67 66 66 64 63 62 62 62 62 67 72 76 77 78 78 77 74 68 59 48
78 78 76 76 76 76 75 72 69 66 64 60 54 48 43 41 39 36 33 29 26 23 21 20 18 18 17 18 18 19 21 21 21 20 18 17 16 16 20 25 28 29 29 31 34 37 39 39 38 37 36 34 32 32 36 44 52 59 64 66 68 68 69 68 68 68 66 66 64 63 62 60 60 59 58 60 62 64 66 68 68 66 60 50 39 29
78 77 76 77 78 77 76 72 70 67 63 57 52 49 47 44 41 38 34 30 27 24 21 20 18 18 18 18 20 21 22 23 22 22 20 18 17 18 21 26 28 29 29 31 34 36 38 38 38 38 37 34 32 32 35 42 51 59 65 68 70 70 70 70 69 68 66 65 63 61 59 58 57 57 57 58 58 58 58 56 54 52 50 40 34 32
78 77 77 78 78 77 76 73 70 66 61 56 53 50 48 44 42 38 35 31 27 24 22 20 19 18 18 19 20 22 23 23 23 23 23 22 20 19 22 26 28 29 29 30 33 35 37 38 38 38 38 36 33 32 33 40 49 58 64 68 70 71 71 71 69 68 66 63 61 58 56 55 54 54 56 56 56 54 51 51 51 51 49 50 55 56
78 78 78 79 79 78 76 73 69 65 60 56 53 50 48 44 41 38 34 31 28 25 23 22 21 20 20 21 22 24 23 22 24 26 28 27 24 21 23 26 28 28 28 30 32 34 35 36 37 39 39 37 34 32 32 38 46 56 63 68 70 72 72 71 70 67 64 61 58 56 54 53 52 52 52 52 50 48 47 51 50 48 48 58 62 62
77 78 78 79 78 77 76 72 68 63 60 57 54 51 48 44 40 37 33 30 28 27 27 28 28 29 28 29 28 26 22 24 26 30 33 31 28 26 24 26 28 28 28 30 31 33 34 35 36 38 40 38 34 32 30 36 44 53 62 67 71 73 73 72 70 67 63 59 56 53 52 50 50 49 48 46 44 43 46 45 42 41 42 48 50 52
76 76 76 77 77 76 74 70 66 63 60 58 56 53 49 44 40 36 32 30 31 34 40 45 47 46 42 38 31 25 22 26 30 33 36 35 32 28 26 27 29 29 28 29 30 32 33 34 36 38 40 39 36 32 30 34 40 50 60 67 72 74 74 73 71 67 63 58 54 51 49 48 47 45 44 42 38 34 30 29 28 27 27 30 32 34
77 76 76 76 76 74 72 69 66 64 62 60 57 54 50 44 39 35 32 33 39 49 60 64 61 53 42 31 24 22 25 29 32 35 38 39 35 30 26 28 29 30 29 29 30 32 33 34 36 38 40 39 36 33 30 31 37 46 57 66 72 76 76 74 72 68 63 58 54 50 48 46 45 43 40 38 34 30 27 24 21 19 18 18 20 24
80 79 78 77 76 75 74 71 68 66 64 61 58 54 50 44 39 35 33 40 52 65 74 72 64 52 37 26 23 24 29 32 33 36 40 42 39 33 27 28 30 31 30 30 30 31 33 34 36 38 40 40 38 34 30 30 33 40 52 62 71 76 78 76 74 70 64 58 53 50 47 45 43 40 38 34 31 28 25 22 20 17 15 16 18 22
82 81 80 79 77 76 74 72 70 68 65 62 59 55 50 43 38 37 40 53 66 76 78 76 70 60 45 32 28 28 32 32 33 36 42 44 40 35 29 30 31 32 32 31 30 30 32 34 36 38 40 40 39 36 32 29 30 36 44 57 67 74 78 77 74 70 64 58 53 49 46 44 42 39 35 31 28 25 23 20 18 16 15 15 18 23
82 82 81 80 78 76 76 74 72 69 66 64 61 57 50 44 42 47 58 69 76 80 81 79 76 68 53 39 32 31 32 31 32 37 43 45 42 37 32 32 33 34 35 34 31 30 30 32 36 39 41 42 40 38 33 29 28 31 38 50 61 71 77 76 74 70 63 57 52 48 45 43 40 37 33 29 26 23 20 19 17 16 14 15 18 25
83 82 82 80 78 77 76 74 72 70 68 65 62 58 52 44 47 56 65 69 75 80 82 81 76 66 53 43 38 34 30 29 32 39 46 48 44 39 35 35 35 36 38 38 35 32 28 30 34 38 42 42 42 39 35 30 28 28 32 42 54 65 74 76 74 70 63 56 51 47 44 42 39 36 32 27 24 21 19 18 16 14 13 14 20 29
83 83 82 80 79 78 76 74 73 71 69 66 64 60 54 45 42 42 39 42 52 61 66 65 61 55 48 45 42 37 29 28 33 40 48 50 47 42 38 38 37 37 39 42 42 39 34 31 32 37 41 43 42 40 36 32 28 27 29 37 47 58 69 73 73 69 62 56 50 46 43 41 38 35 32 27 24 20 18 16 15 14 12 15 23 34
84 83 82 80 79 78 77 76 74 72 70 68 64 60 54 45 37 29 22 22 26 32 38 40 42 42 42 44 42 38 30 30 35 42 51 53 50 45 42 41 40 38 39 42 45 46 43 38 36 36 40 42 42 41 38 33 29 26 26 32 41 52 63 70 72 69 62 56 50 45 42 40 38 35 32 28 24 21 18 16 14 13 12 18 28 40
83 82 81 80 79 78 77 76 74 73 71 69 65 60 54 44 35 26 20 18 19 23 28 32 36 38 40 41 40 36 32 32 38 45 53 55 52 48 44 43 42 40 40 42 45 47 47 44 42 40 40 42 42 42 39 34 30 27 26 29 36 46 58 66 70 69 62 55 49 44 40 38 36 34 32 29 26 22 18 16 14 12 12 21 33 45
83 82 81 80 78 78 77 76 74 74 72 70 66 62 55 45 35 26 19 18 20 23 29 34 37 38 38 38 37 35 33 34 40 47 54 56 54 52 48 45 43 42 42 44 45 46 48 47 46 45 44 43 43 42 40 36 32 28 26 27 32 40 52 62 68 68 62 55 48 43 39 36 34 32 31 28 26 22 19 17 14 12 13 26 38 49
82 81 80 79 78 77 76 76 74 74 72 70 67 62 56 46 36 26 20 18 19 22 26 30 33 35 37 37 37 36 34 36 42 49 54 56 56 55 51 48 46 46 47 46 47 48 50 48 48 49 49 46 44 42 40 37 33 29 26 26 29 36 46 57 64 67 63 56 50 44 40 36 33 30 28 26 24 22 19 16 14 13 16 30 42 52
81 80 78 78 77 76 76 74 74 72 71 69 66 61 55 46 37 28 22 18 18 20 22 25 28 31 35 38 38 38 37 39 43 49 54 56 58 57 55 50 48 49 51 51 51 51 52 51 50 50 51 50 47 44 41 38 34 30 26 26 28 32 40 51 60 66 65 60 54 48 42 37 33 30 27 25 23 21 18 16 14 14 20 33 45 53
80 78 77 76 76 76 74 74 72 71 70 68 65 60 54 47 39 31 24 20 18 17 19 21 24 28 33 37 40 40 40 42 45 49 53 56 58 58 58 54 52 52 55 56 56 55 55 54 53 52 52 52 50 47 43 39 34 30 27 26 27 30 35 44 55 63 66 62 58 52 46 40 35 30 27 24 22 20 18 16 14 16 23 34 44 52
79 78 77 76 76 76 74 74 72 71 70 67 64 60 55 48 42 34 26 20 17 16 16 18 22 26 32 37 40 42 43 45 47 50 53 56 58 60 60 57 55 55 58 60 60 60 58 58 57 56 54 53 51 49 46 41 36 31 27 26 26 28 32 40 49 59 65 64 60 56 50 44 38 32 28 24 22 19 16 15 15 18 24 34 43 51
79 78 77 77 77 76 76 74 73 71 69 66 63 60 56 50 43 36 28 21 17 15 15 17 20 26 31 36 40 43 46 48 50 52 54 57 59 60 62 60 60 59 60 62 62 62 62 61 60 60 59 56 54 50 46 42 38 33 28 26 26 27 30 36 44 54 62 64 62 58 53 46 40 34 29 25 22 18 16 14 16 19 26 33 40 49
80 80 79 79 79 78 77 76 74 71 69 66 64 62 58 52 44 36 28 22 17 15 14 16 20 24 30 35 40 43 46 49 52 54 56 58 60 62 64 64 64 63 63 63 62 62 62 62 62 62 61 60 57 53 48 44 40 35 30 26 26 26 28 33 40 48 57 61 62 60 56 49 42 36 31 26 23 20 16 15 16 19 24 30 38 45
80 82 81 81 80 79 78 75 73 71 69 68 66 63 60 53 45 37 28 22 18 14 14 16 20 24 28 33 38 42 46 50 52 55 57 60 62 65 68 68 68 68 66 64 62 61 62 63 64 63 63 62 59 55 50 46 42 37 32 28 26 26 27 30 36 42 51 58 62 62 60 52 45 38 32 28 24 22 18 16 16 19 22 28 35 42
82 82 81 81 80 78 76 74 72 71 70 69 67 64 60 53 45 37 29 23 18 16 14 16 20 24 28 31 35 39 44 48 52 56 58 62 66 69 71 72 71 70 68 66 63 61 61 63 65 66 65 64 61 58 52 48 43 39 34 30 26 26 26 28 32 38 46 54 60 62 62 56 48 40 33 28 24 22 18 16 16 18 20 24 31 39
82 82 81 80 79 78 76 74 73 72 72 71 69 66 61 54 45 37 30 24 20 16 15 16 20 24 27 28 31 35 40 46 52 57 60 64 68 70 72 72 72 71 69 66 64 61 60 62 65 66 67 65 63 60 55 50 45 40 36 31 28 26 26 26 30 34 41 49 56 60 62 58 51 43 35 29 25 22 19 17 16 16 17 21 26 34
83 82 82 81 80 78 77 76 74 74 74 72 70 66 60 53 45 38 30 25 21 17 16 16 19 22 24 26 27 31 37 43 50 56 60 65 68 70 72 72 72 71 69 67 64 62 61 62 64 66 67 66 64 60 57 53 48 42 37 32 29 27 26 26 28 31 36 44 51 57 61 58 53 46 37 31 26 23 20 18 16 15 14 16 22 29
84 84 83 82 81 80 78 77 77 76 74 72 69 65 59 52 45 38 32 26 22 18 16 16 19 21 23 23 25 29 34 40 46 53 59 64 68 70 72 72 72 70 68 66 64 63 64 64 65 66 66 65 63 60 58 56 51 45 39 34 30 27 26 26 26 29 33 40 46 53 58 58 54 47 39 32 27 23 20 18 16 14 13 13 16 23
84 84 83 82 81 80 79 78 77 76 74 72 68 63 58 51 45 39 33 27 23 19 16 16 18 20 21 21 24 27 32 37 43 49 56 61 66 69 72 72 72 70 68 65 63 63 64 66 67 67 66 64 62 60 58 57 54 48 40 35 30 27 26 26 26 28 31 36 42 49 54 56 54 48 41 34 27 22 19 17 15 13 12 11 12 17
84 83 82 82 81 80 79 78 77 76 74 71 67 62 57 51 45 40 34 28 24 19 16 15 16 17 18 20 23 26 31 36 40 46 52 58 63 68 72 73 72 70 66 64 62 62 64 66 67 68 68 65 61 58 57 56 54 49 42 36 31 27 25 24 25 26 29 34 40 45 51 53 52 49 42 35 28 22 18 16 15 13 11 10 10 12
83 82 82 81 80 79 78 78 77 76 74 71 66 61 56 50 45 40 35 30 24 20 16 14 14 14 16 18 21 25 30 35 40 44 50 55 61 66 71 72 71 68 65 63 62 62 63 65 66 67 66 64 62 59 56 55 52 48 43 37 32 28 26 24 24 26 28 31 37 42 49 52 52 49 43 35 27 21 17 16 15 14 11 8 8 9
83 82 81 81 80 80 79 79 78 77 75 71 66 60 56 50 45 40 36 30 26 21 16 14 13 13 14 16 19 23 29 34 38 42 47 53 60 65 70 71 70 67 64 61 60 60 62 63 64 64 63 62 60 58 56 54 51 48 43 38 34 30 26 25 25 26 27 30 34 40 46 51 53 52 47 37 28 21 16 14 14 14 12 8 6 6
83 82 82 81 81 81 80 80 78 77 74 70 64 60 55 50 46 41 36 31 26 22 18 15 13 12 12 14 17 21 26 31 35 39 43 51 58 66 70 70 69 66 63 60 58 58 60 60 60 60 58 58 58 58 57 54 51 48 44 40 36 32 28 26 26 26 27 29 33 38 43 49 52 53 50 42 32 23 16 13 12 13 13 10 6 5
83 82 82 82 82 81 81 80 78 76 72 68 63 58 54 50 46 42 37 32 28 24 19 16 14 12 12 12 14 18 22 26 31 35 40 48 58 66 70 70 68 66 62 60 58 58 60 60 58 56 54 55 57 58 58 56 53 50 46 42 37 33 30 27 26 26 27 29 33 37 42 47 50 52 52 44 36 26 17 13 12 12 14 11 8 5
Wind_Speed
38 37 37 37 36 35 34 32 32 32 33 32 32 32 33 33 33 33 33 32 32 32 32 31 31 30 30 30 31 31 32 32 33 33 34 34 34 35 35 35 36 36 37 37 37 38 39 40 40 42 43 44 45 46 47 48 49 50 51 51 52 53 54 55 55 56 56 57 57 58 57 57 55 53 52 53 54 56 57 58 57 57 57 57 58 58
39 38 38 37 36 35 34 33 32 32 33 33 32 32 33 33 33 33 33 32 32 32 32 31 31 31 30 30 31 31 32 33 33 34 34 34 35 35 35 36 36 36 37 37 38 39 39 40 41 42 43 44 45 46 47 47 48 49 50 51 52 53 54 54 55 56 57 57 58 58 58 57 55 53 52 52 53 54 55 55 55 55 56 56 57 58
39 39 38 37 36 35 34 33 33 33 33 33 33 33 33 33 33 33 32 32 32 32 31 31 31 31 31 31 31 32 32 33 33 34 34 34 35 35 35 36 36 37 37 38 38 39 40 41 42 43 44 45 45 46 46 47 47 48 49 50 51 52 53 54 55 56 56 57 57 58 58 57 55 53 52 51 51 51 52 52 52 53 54 55 56 57
40 39 38 37 36 36 34 33 33 33 33 33 33 33 33 33 33 33 33 32 32 32 31 31 31 31 31 31 32 32 32 33 33 33 34 34 35 35 35 36 36 37 38 38 39 40 40 41 42 43 44 45 46 46 46 47 47 48 48 49 50 51 52 53 54 55 55 56 56 56 56 55 54 52 51 50 50 50 50 50 50 51 52 54 55 56
40 39 38 37 37 36 35 34 33 33 33 33 33 33 33 33 33 33 33 32 32 32 31 31 31 31 32 32 32 32 32 33 33 33 34 34 34 35 35 36 36 37 38 39 39 40 41 42 43 44 45 45 46 46 47 47 48 48 49 49 50 50 51 52 52 53 54 54 54 54 54 53 52 51 50 50 50 50 50 49 49 50 51 53 54 55
40 39 38 38 37 36 35 34 33 33 33 33 33 33 33 33 33 33 33 32 32 32 32 31 31 31 32 32 32 32 32 32 33 33 33 34 34 34 35 36 36 37 38 39 40 40 41 42 43 44 45 45 46 46 47 47 48 48 49 49 50 50 51 51 51 52 52 52 52 52 51 50 49 49 49 49 50 50 50 50 49 49 50 51 53 54
40 39 39 38 37 36 35 34 33 33 33 33 33 33 33 33 33 33 33 33 33 33 32 32 32 32 32 32 32 32 32 32 32 33 33 33 33 34 35 36 36 37 38 39 40 41 41 42 43 44 44 45 45 46 47 47 48 48 49 49 50 50 50 51 51 50 50 50 49 49 48 48 47 47 47 48 48 49 50 50 50 49 49 50 51 53
41 40 39 38 38 37 35 34 33 32 33 33 33 33 33 33 33 33 33 33 33 33 33 33 32 32 32 32 32 32 33 33 33 33 33 33 33 34 35 35 36 37 38 39 40 40 41 42 42 43 44 44 45 46 47 47 48 48 48 49 49 49 50 50 49 49 48 48 47 46 45 45 44 44 45 46 47 48 49 49 49 48 48 48 49 51
41 40 39 38 38 37 36 34 33 32 33 33 34 34 34 33 33 33 34 34 34 34 34 34 33 33 32 32 32 32 33 33 33 33 33 33 34 34 35 36 36 37 38 39 39 40 41 41 42 42 43 44 45 46 46 47 47 48 48 48 48 48 48 48 48 47 46 45 44 43 43 42 42 43 43 44 45 45 45 45 46 46 46 47 48 49
42 41 40 39 38 37 36 34 33 32 33 34 34 34 34 33 33 34 34 34 35 35 35 35 34 33 32 32 31 32 33 33 33 33 33 33 34 34 35 36 37 38 38 38 39 40 40 40 41 42 42 43 44 45 46 46 47 47 47 47 47 47 46 46 46 45 44 43 42 41 41 41 41 41 42 42 41 41 41 41 42 43 44 46 47 48
42 41 40 39 38 37 36 34 33 33 33 34 34 34 33 33 33 34 35 35 35 35 35 35 35 34 33 32 31 32 33 34 34 34 33 33 33 34 35 36 37 38 38 38 39 39 40 40 41 41 42 43 44 45 45 46 46 46 46 45 45 45 44 44 43 42 41 40 40 39 39 39 40 40 40 40 40 39 39 40 41 42 43 44 45 45
42 41 40 39 38 37 36 34 34 33 33 34 34 34 33 33 33 34 36 36 36 36 36 36 35 34 33 32 32 33 34 35 35 34 33 33 33 34 36 37 37 38 38 38 39 39 40 40 41 41 42 43 44 44 45 45 45 45 45 44 44 43 43 42 41 40 39 38 38 38 38 38 39 40 40 40 41 41 41 41 41 41 42 43 43 43
42 41 40 39 38 37 36 35 34 34 34 34 34 33 33 33 33 34 36 37 37 37 37 36 35 34 32 32 32 33 35 36 36 35 34 33 33 35 36 37 38 38 38 38 39 39 40 40 41 41 42 43 43 44 44 45 45 44 44 43 43 42 41 40 39 38 37 37 37 37 38 38 39 39 40 41 42 43 43 42 41 41 42 42 42 42
42 41 40 40 39 37 36 35 34 34 34 33 33 33 32 32 33 34 36 37 37 38 38 37 36 34 32 31 32 33 35 37 37 36 35 34 34 35 37 38 38 38 38 39 39 40 40 41 41 42 42 43 44 44 45 45 44 44 43 43 42 42 41 40 39 38 37 37 37 37 37 38 38 39 39 40 41 42 42 42 42 42 42 42 42 41
42 41 40 40 39 37 36 35 35 34 34 34 33 33 32 32 32 33 35 37 38 38 38 38 37 35 33 31 31 33 35 37 38 37 35 34 34 35 37 38 39 38 38 39 40 40 40 41 42 42 43 43 44 44 45 44 44 43 43 42 41 41 40 39 39 38 37 37 37 37 37 37 37 37 38 38 38 38 38 38 39 40 41 41 40 40
41 41 40 40 39 37 36 35 35 35 34 34 33 33 32 32 32 33 35 36 37 38 38 38 38 36 34 31 31 33 36 38 39 38 37 35 34 34 37 39 39 39 39 39 40 41 41 41 42 42 43 43 44 44 44 44 43 42 41 41 40 39 39 38 38 37 37 37 37 37 37 36 36 36 36 34 33 32 33 35 36 37 37 37 37 37
41 41 40 39 38 37 36 35 35 35 35 34 33 32 32 32 32 33 34 35 36 37 37 38 38 37 35 32 31 32 35 38 39 39 38 36 35 34 36 38 40 40 39 39 40 41 41 41 42 42 43 43 43 43 43 43 42 41 40 39 39 38 38 37 37 37 37 37 37 36 36 36 36 34 33 30 29 31 33 34 35 34 34 35 35 35
41 41 40 39 38 37 36 35 35 35 35 34 34 33 33 33 33 33 34 34 35 36 36 37 37 37 37 35 33 33 35 38 40 40 39 37 35 35 36 38 40 40 40 40 40 40 41 41 42 42 42 42 42 42 42 41 41 40 39 38 38 37 37 36 36 36 36 36 36 36 36 35 34 33 30 29 30 33 35 35 34 34 33 33 34 35
41 40 39 39 38 37 36 35 35 34 34 34 34 34 34 34 33 33 33 33 34 35 36 37 37 37 37 36 35 34 36 38 40 40 40 38 36 35 36 38 40 40 40 40 40 40 41 41 41 41 42 42 41 41 41 40 39 39 38 38 37 37 36 36 36 36 36 36 35 35 35 34 33 32 32 32 33 35 35 35 34 34 34 34 34 34
41 40 39 38 37 36 36 35 34 34 33 34 34 35 34 34 33 32 32 32 33 34 35 37 38 38 37 37 36 36 36 38 39 40 40 39 37 35 36 38 40 41 40 40 40 40 41 41 41 41 41 41 41 40 40 39 38 38 37 37 36 36 36 36 35 35 35 35 35 34 34 33 33 33 33 33 34 34 34 34 33 34 34 34 33 32
40 39 38 36 36 36 36 35 33 33 33 34 35 35 34 33 32 32 32 32 33 34 36 37 38 38 37 37 37 36 36 38 39 40 40 39 37 36 36 39 41 41 41 40 40 40 41 41 41 41 41 41 40 40 39 38 38 37 36 36 35 35 35 35 35 35 34 34 34 33 33 32 32 32 32 32 32 32 31 31 32 32 32 31 31 31
39 38 36 36 36 36 35 34 33 33 33 34 34 34 33 33 32 33 33 33 34 35 36 37 38 38 38 38 37 36 36 37 38 39 40 39 38 37 37 39 41 41 41 40 40 41 41 41 41 41 41 40 40 39 39 38 37 36 35 35 35 34 34 34 34 34 34 33 33 32 31 31 31 31 31 31 30 30 30 30 30 30 29 29 29 29
38 37 36 35 35 35 35 34 34 33 33 33 33 33 32 32 33 33 34 34 35 36 37 38 39 38 38 37 36 36 36 36 37 38 39 40 39 38 38 40 41 42 41 41 41 41 41 41 41 41 40 40 40 39 38 38 37 36 35 34 34 34 34 34 34 34 33 33 32 31 30 30 30 30 30 30 30 30 30 30 29 29 28 27 27 27
37 36 35 35 35 35 35 34 34 33 33 32 32 32 32 32 33 34 34 35 36 37 38 39 39 39 38 37 36 35 34 35 36 37 39 39 39 39 39 40 41 42 41 41 41 41 41 41 40 40 40 40 39 39 38 37 37 36 35 34 34 33 33 33 33 33 33 32 31 30 29 29 29 29 29 29 29 30 30 30 30 29 29 28 27 27
38 36 36 35 35 35 34 34 33 32 32 31 31 31 32 32 33 34 35 36 36 37 37 38 39 39 38 36 35 33 33 33 35 37 38 39 40 40 39 40 41 42 42 41 41 41 41 41 40 40 40 40 39 38 38 37 36 36 35 34 34 33 33 33 33 33 33 32 31 30 29 28 28 28 28 29 29 29 30 30 30 30 29 28 28 27
38 37 37 36 35 34 34 33 32 31 31 31 31 31 32 33 34 35 36 36 36 36 37 39 40 39 37 35 33 32 32 33 34 36 37 39 40 40 39 40 41 43 43 42 41 41 42 41 40 40 40 40 39 38 38 37 36 35 34 34 33 33 32 33 33 33 33 32 31 30 29 28 28 28 28 28 28 29 29 29 29 29 29 28 28 27
38 38 38 37 36 34 33 32 32 31 31 31 31 32 32 33 35 36 36 35 35 35 36 38 40 40 38 36 34 33 32 33 34 35 36 38 39 40 40 40 41 43 43 43 42 41 41 41 41 40 40 40 39 39 38 37 36 35 34 33 32 32 31 32 32 32 32 31 31 30 29 28 28 27 28 28 28 28 28 28 28 28 28 28 27 26
38 38 38 37 36 34 33 33 32 32 31 31 31 31 32 34 36 36 36 35 33 34 35 37 39 41 41 39 37 34 33 33 34 34 35 37 39 39 40 40 41 43 43 43 42 41 41 41 41 41 40 40 40 39 38 37 36 35 34 33 31 30 30 30 31 31 31 30 30 29 28 28 27 27 27 27 27 27 27 27 27 27 27 27 26 26
39 38 38 37 36 34 34 33 33 32 32 31 31 31 32 34 35 36 36 34 33 33 36 39 41 43 44 42 39 36 34 33 33 33 34 36 38 39 40 40 41 42 44 44 44 42 41 40 40 41 41 41 40 39 39 38 37 36 34 33 31 30 29 30 30 30 30 29 29 28 27 27 27 27 27 27 26 26 26 26 26 27 27 26 26 25
39 38 37 37 35 34 34 34 33 33 32 31 31 31 32 33 33 34 33 32 32 34 38 41 43 45 45 43 41 38 35 33 32 32 34 36 38 39 40 40 41 42 43 45 45 44 42 40 40 40 41 41 41 40 39 38 37 37 35 34 32 30 29 29 29 29 29 29 28 27 27 26 26 26 26 26 26 26 26 26 26 26 26 26 26 25
38 38 37 36 35 35 34 34 34 33 32 31 31 31 31 32 32 32 32 32 33 36 39 42 43 44 44 42 41 39 36 33 31 31 33 35 37 39 39 40 41 41 42 43 45 46 45 42 40 40 41 41 41 40 39 39 38 37 36 35 33 31 30 30 29 29 29 28 27 27 26 25 25 26 26 26 26 25 25 25 25 26 26 26 25 25
37 37 37 36 35 35 35 35 34 33 32 31 30 30 30 31 32 32 32 32 33 35 37 39 41 41 41 40 40 39 36 33 31 30 32 35 37 38 39 40 41 41 41 42 43 45 47 46 44 42 41 41 41 40 40 39 39 38 37 36 34 32 30 30 30 29 29 28 27 26 25 25 25 25 25 25 25 25 25 25 25 25 25 25 25 24
37 36 36 36 35 35 35 35 34 33 32 31 30 29 30 30 31 31 31 31 32 33 35 37 38 39 39 39 38 37 35 33 30 30 32 34 36 38 39 39 40 41 41 41 42 44 45 46 46 44 43 42 41 41 40 39 39 39 38 37 35 33 31 30 30 29 29 28 27 26 25 24 24 24 24 24 24 25 25 25 25 25 25 25 25 24
36 36 36 36 35 35 35 34 34 33 32 31 30 30 30 30 30 29 29 30 31 33 34 36 37 38 38 38 38 36 35 32 30 30 31 34 36 37 38 39 40 40 41 41 42 43 44 45 46 46 45 43 41 40 40 40 40 39 38 37 35 33 32 30 30 29 29 28 27 26 25 24 23 22 22 23 23 23 24 24 24 24 24 24 24 23
35 35 35 35 35 35 34 34 33 32 31 30 30 30 30 30 29 28 28 29 31 33 35 36 37 37 37 37 37 36 34 31 30 30 31 33 35 37 38 39 39 40 41 42 42 43 44 45 45 45 46 45 43 41 40 40 40 39 39 37 36 34 32 31 30 29 29 28 27 27 25 24 23 22 21 21 22 22 22 23 23 24 24 23 23 22
35 35 35 35 34 34 33 33 32 31 30 30 30 30 30 29 28 28 28 29 31 33 35 36 36 36 36 36 36 35 33 31 30 30 31 32 34 36 37 38 39 39 40 41 42 43 45 45 45 45 45 45 44 43 41 40 40 39 39 37 36 34 32 30 30 29 29 28 28 27 26 25 23 22 21 21 21 21 21 22 22 23 23 22 21 20
34 34 34 34 34 33 33 32 31 30 31 31 31 30 29 28 28 28 29 30 32 33 34 35 35 35 35 35 35 34 33 32 31 30 31 32 33 35 37 37 38 38 39 41 42 43 44 45 45 45 45 45 45 44 43 41 40 40 39 38 36 34 32 30 29 29 28 28 28 27 27 26 24 23 21 21 20 20 20 20 21 22 22 21 20 19
34 34 34 33 33 32 32 31 31 31 31 31 30 29 28 28 28 29 30 31 32 33 34 34 34 34 34 34 34 33 33 32 31 31 31 32 33 34 36 37 37 38 39 40 41 43 44 45 45 45 45 44 44 44 43 43 42 41 40 38 36 34 32 31 29 29 28 28 28 27 27 26 25 23 22 21 20 19 19 19 19 20 21 20 19 17
33 33 33 33 32 32 32 32 32 32 31 31 30 29 28 28 29 30 31 32 32 33 33 33 34 34 33 33 33 33 33 32 31 31 31 31 32 33 35 36 37 37 38 39 41 42 43 44 44 44 45 45 44 43 42 42 42 42 41 40 37 34 32 31 30 29 28 28 27 27 27 26 25 24 22 21 20 19 18 18 18 19 20 20 18 17
32 32 33 32 32 32 32 32 32 32 31 30 29 28 29 29 30 31 31 32 32 33 33 33 33 33 33 33 33 33 33 32 31 31 31 31 32 33 34 35 36 37 38 39 40 41 42 42 43 43 44 44 44 44 43 42 42 42 42 41 39 36 33 31 30 29 28 28 27 27 27 26 25 24 23 21 20 19 18 17 17 18 19 19 18 16
32 32 32 32 32 32 32 32 32 31 30 29 29 29 29 30 30 31 31 32 32 32 32 32 33 33 33 33 33 33 32 32 31 31 31 31 31 32 33 34 36 37 38 39 40 40 41 41 42 42 42 43 43 43 43 42 41 41 42 42 40 38 34 32 31 30 29 28 27 27 27 27 26 24 23 21 20 19 18 17 17 17 18 18 17 15
32 33 33 32 32 32 32 32 31 30 30 29 29 30 30 30 30 31 32 32 32 32 32 32 33 33 34 34 34 33 32 32 31 30 30 30 31 31 32 34 35 36 37 39 39 40 40 40 40 41 41 42 42 42 42 41 41 40 40 41 40 39 36 33 31 30 29 28 27 27 27 27 26 25 23 22 20 19 18 17 17 17 17 17 16 15
33 33 33 33 32 32 32 31 31 30 30 30 30 30 30 30 30 31 31 32 32 32 32 32 33 34 35 35 34 33 32 31 30 30 30 30 30 31 32 33 34 35 37 38 39 39 39 39 39 39 40 40 41 42 42 41 40 40 39 40 40 40 38 35 33 31 30 29 28 27 27 27 26 25 23 22 20 19 18 17 17 17 17 17 16 15
33 33 33 33 32 32 31 31 31 31 31 31 31 31 30 30 30 30 31 31 32 32 32 33 33 34 35 36 35 34 32 31 30 29 29 29 30 31 32 33 34 35 36 37 38 38 39 39 38 38 38 39 40 40 40 40 40 39 39 39 39 39 39 37 35 33 31 29 28 27 27 27 26 25 23 22 20 19 18 17 16 16 17 17 16 15
33 33 33 32 32 32 31 31 31 31 32 32 32 31 30 30 29 30 30 31 32 32 33 33 34 35 36 36 35 34 33 31 30 29 29 29 29 30 31 32 33 34 35 36 37 37 38 38 38 38 38 38 38 38 38 39 39 39 38 38 38 38 37 36 36 34 32 30 28 27 27 27 27 25 24 22 20 19 17 17 16 16 16 17 16 15
33 33 32 32 32 32 32 32 32 32 32 32 31 31 30 29 29 30 31 32 32 33 33 33 34 36 37 36 35 34 33 32 31 29 29 29 29 30 30 31 32 33 34 35 36 36 37 37 37 37 38 37 37 37 37 37 38 38 38 37 37 37 36 36 35 34 32 30 29 28 27 27 27 26 25 23 20 19 17 16 16 16 17 17 17 16
32 32 32 32 32 32 32 32 32 32 32 31 31 30 30 30 30 31 31 32 32 33 33 34 35 36 36 36 35 35 34 33 31 30 29 29 29 29 30 31 32 33 34 34 35 35 36 36 36 37 37 37 37 36 35 35 36 36 37 37 37 37 36 36 35 33 32 30 29 27 27 27 27 26 25 23 21 19 17 16 16 16 17 17 17 17
31 32 32 32 32 32 31 31 31 31 31 31 30 30 30 30 30 31 32 32 32 33 34 34 35 36 36 36 35 35 34 33 32 31 30 29 28 28 29 30 31 32 33 33 34 35 35 35 35 35 36 36 36 36 35 35 35 35 35 36 36 36 36 35 35 34 32 30 29 27 27 27 27 27 25 23 21 18 16 15 15 16 17 18 18 17
31 31 31 31 31 31 31 30 30 30 30 30 30 30 30 30 30 31 32 32 33 33 34 34 35 35 36 35 35 34 34 33 33 32 30 29 28 28 29 30 31 32 32 33 33 34 34 35 35 34 34 35 35 36 35 35 35 35 35 35 35 35 35 35 35 34 33 31 29 27 26 26 26 27 26 25 22 19 16 15 15 16 17 18 18 18
30 30 31 31 30 30 30 30 30 30 30 30 30 30 30 30 30 31 32 32 33 33 34 34 35 35 35 35 35 34 34 34 33 32 30 29 28 28 29 30 31 32 32 33 33 34 34 35 35 34 33 33 34 35 35 35 35 35 34 34 34 34 34 34 34 34 33 32 30 28 26 25 26 26 26 25 23 20 17 15 14 15 17 18 19 19
30 30 30 30 30 30 30 30 30 30 30 30 29 30 30 30 30 31 31 32 33 33 34 34 34 35 35 35 35 34 34 34 33 32 30 28 28 28 29 30 31 31 32 33 33 34 34 35 35 34 32 31 32 34 35 36 36 35 34 33 33 33 33 33 33 33 33 32 30 28 27 26 25 25 25 25 24 21 18 16 14 15 16 18 20 20
Wind_Direction
285 285 284 283 283 283 282 281 279 277 276 275 275 275 276 277 278 279 281 282 284 286 288 290 292 294 296 297 298 298 298 298 298 298 299 299 300 301 301 301 302 302 302 303 304 304 305 306 306 305 304 303 301 300 298 297 296 295 294 293 293 292 292 291 291 290 290 289 288 288 286 285 283 280 277 274 272 271 270 270 270 270 271 271 271 271
284 284 284 284 283 283 282 280 278 276 276 275 274 274 275 276 277 278 280 282 284 286 288 290 292 294 296 297 297 297 297 297 297 298 299 299 300 302 302 303 304 304 305 306 307 308 308 308 307 306 304 303 301 300 298 297 296 295 295 294 293 293 292 292 291 290 290 289 289 288 287 286 283 280 277 274 272 270 270 270 270 271 271 271 270 270
283 283 284 284 283 282 281 280 278 276 275 275 274 274 274 275 276 277 279 281 283 285 287 289 292 294 295 295 295 295 295 296 297 298 299 300 301 303 304 305 306 307 308 309 309 310 309 308 307 305 304 302 301 300 299 298 297 296 295 294 293 292 292 291 290 290 289 288 288 287 287 286 284 281 277 274 272 271 271 271 271 271 271 270 269 268
282 283 284 283 283 282 281 280 278 276 275 275 274 274 274 274 275 277 278 280 282 283 286 288 291 293 294 294 294 294 295 296 297 298 300 301 303 304 306 307 308 309 310 310 311 310 309 308 306 305 303 302 302 301 300 299 298 297 296 295 293 292 292 291 290 289 288 288 287 287 286 285 284 281 278 276 274 273 273 272 272 271 270 269 268 267
282 283 283 282 282 282 281 280 278 276 275 275 274 274 273 274 275 276 277 279 280 282 284 287 289 291 292 293 293 294 295 296 298 299 301 303 304 306 307 308 309 310 311 311 311 310 309 307 306 305 304 304 303 303 302 301 300 299 297 296 295 294 292 291 290 290 289 288 287 287 286 285 283 280 278 277 275 274 273 272 271 270 269 268 267 266
282 282 282 281 281 281 281 280 278 277 276 275 274 273 273 273 274 275 277 278 280 281 283 285 287 289 291 292 293 294 296 297 299 301 302 304 306 307 308 309 309 310 311 311 311 310 309 307 306 306 306 305 305 305 304 303 302 300 299 298 296 295 294 292 291 290 289 288 287 286 285 284 282 279 277 276 274 273 271 270 268 268 268 267 266 264
281 281 281 281 281 282 281 280 278 277 276 275 274 273 273 273 273 274 275 277 278 280 282 284 286 288 290 292 293 295 297 298 300 301 303 305 306 307 308 309 310 311 311 311 311 310 309 308 307 307 307 307 307 306 305 304 303 302 300 299 298 296 295 294 292 291 290 289 288 286 285 283 281 279 277 275 273 272 270 268 266 265 265 265 265 263
280 280 280 281 282 282 281 280 279 278 276 276 275 274 273 272 273 273 274 276 277 279 281 283 284 286 289 291 294 296 298 299 301 302 304 305 307 308 309 309 310 311 311 311 310 309 309 308 308 308 308 308 308 307 306 305 304 302 301 299 298 297 296 294 293 292 291 289 288 286 285 283 281 279 277 275 273 271 269 267 265 263 262 263 263 261
279 279 280 281 281 282 282 281 280 278 277 276 276 275 274 273 273 273 274 275 276 278 280 282 283 285 288 291 294 297 299 300 302 303 305 307 308 309 310 310 310 311 311 311 310 310 309 309 309 309 309 309 309 308 307 306 304 303 301 300 298 297 296 295 293 292 291 290 288 287 285 283 281 279 277 275 273 272 270 269 267 264 262 262 261 259
278 279 280 281 281 282 282 281 280 279 277 277 276 276 276 275 274 273 273 274 275 277 279 281 283 285 288 291 294 297 299 301 302 304 305 307 309 310 310 310 310 311 311 311 311 310 310 310 310 310 310 310 310 309 308 306 305 303 302 300 299 297 296 295 293 292 291 290 289 287 285 284 282 279 277 276 275 274 274 273 271 269 266 263 259 257
278 279 280 281 281 282 282 281 280 279 278 277 277 277 277 276 275 274 274 274 274 276 277 279 281 284 288 292 295 297 299 300 301 303 304 307 308 310 310 310 310 310 311 311 311 312 312 312 312 312 312 311 311 310 309 307 306 304 303 301 299 298 296 295 294 292 291 290 288 287 285 283 281 279 278 278 276 275 274 273 272 270 267 263 260 257
277 279 279 280 281 281 281 281 280 279 278 278 279 279 278 277 275 274 274 274 274 275 276 278 280 283 288 292 295 298 299 300 301 302 304 306 308 309 309 309 309 310 311 312 312 313 313 313 313 313 313 313 312 311 310 309 307 306 304 302 300 299 297 295 294 292 291 289 287 285 283 281 279 277 276 274 271 268 266 265 265 266 265 263 261 259
277 278 279 280 280 281 281 281 280 279 278 279 280 280 279 277 276 274 274 275 275 275 276 277 279 282 286 291 295 298 299 300 301 302 304 307 309 309 309 309 309 310 312 313 314 315 315 315 315 315 314 314 314 313 312 310 309 307 305 303 301 299 298 296 295 293 291 289 287 284 282 279 277 275 273 270 266 263 260 258 259 260 261 260 259 257
276 277 278 279 280 281 281 281 280 279 279 279 280 280 279 278 276 275 275 275 276 276 277 278 279 282 285 289 294 297 299 300 301 302 304 307 309 310 309 309 310 312 314 315 316 316 316 316 316 316 316 316 316 315 313 312 310 309 307 305 303 301 299 297 296 294 293 291 288 286 283 281 278 276 274 271 269 266 263 261 259 258 257 256 254 252
275 276 277 278 280 281 281 281 280 280 280 280 280 280 280 279 277 276 276 276 276 276 277 279 280 282 285 289 294 297 299 300 301 303 305 307 309 310 310 310 311 313 315 316 317 317 318 318 318 318 318 318 318 317 316 314 312 310 308 306 304 301 300 298 297 296 294 292 290 287 285 282 280 277 275 274 273 272 272 270 268 266 263 260 255 252
275 275 276 278 279 280 281 281 280 280 280 280 281 282 282 281 280 278 276 276 276 277 278 280 282 284 286 289 294 298 299 300 301 303 305 306 308 310 310 311 312 313 315 317 317 318 318 318 319 319 320 320 319 318 317 316 314 312 309 307 304 302 300 299 297 296 294 292 290 288 285 283 281 278 277 277 278 280 281 281 279 277 275 271 266 261
273 274 275 277 279 280 280 280 280 280 281 282 283 284 284 283 281 278 277 276 277 278 280 282 284 286 288 291 294 297 299 300 301 302 304 305 308 310 311 311 312 314 316 317 318 318 319 319 320 320 321 321 321 320 318 317 315 312 310 307 305 302 300 299 298 296 294 292 290 288 286 284 281 279 277 278 280 282 281 280 279 278 276 274 271 267
272 273 275 277 278 279 280 279 280 281 282 283 285 285 284 282 280 279 278 278 279 281 282 284 286 288 291 293 296 297 298 299 300 301 303 305 307 310 311 312 312 313 315 317 318 318 319 319 320 321 322 322 322 321 320 318 316 313 311 308 306 304 302 300 299 297 295 293 291 289 287 285 282 279 276 275 275 274 272 271 271 269 268 267 265 263
271 273 274 276 278 279 279 279 280 282 284 285 286 285 283 282 281 281 281 282 283 285 286 287 288 289 291 294 296 297 297 298 300 301 302 304 307 310 312 312 312 313 314 316 318 318 318 319 320 321 322 323 323 322 321 319 317 315 312 310 307 305 303 302 300 299 296 294 292 290 288 286 283 279 275 272 269 267 264 264 263 261 260 258 257 257
270 272 273 276 277 278 278 279 280 282 283 284 283 283 282 282 283 284 286 287 288 288 288 288 288 289 291 292 294 295 297 298 299 301 302 304 307 310 312 312 312 312 314 316 317 318 318 319 320 322 323 324 325 324 323 321 319 317 314 311 309 307 305 303 302 300 298 296 294 292 290 288 284 281 277 275 272 270 268 266 265 263 261 259 258 258
269 271 273 275 276 276 277 278 279 280 280 280 280 281 282 284 287 289 290 291 291 290 289 288 288 289 289 290 292 294 296 298 299 301 302 304 307 310 312 312 311 312 314 315 316 317 317 319 321 323 325 326 326 325 324 323 321 318 315 312 309 307 305 304 302 300 298 297 295 293 292 289 287 284 281 279 276 274 272 270 268 266 266 265 264 264
268 271 273 274 274 274 275 276 277 277 277 278 280 282 286 289 291 293 294 293 292 290 289 288 288 288 288 289 291 293 295 297 299 301 303 305 307 310 311 311 310 311 313 315 316 317 317 319 321 323 325 326 327 326 326 324 322 319 316 313 311 308 306 304 302 300 299 297 296 295 293 291 288 286 283 280 278 275 273 271 269 268 267 267 268 269
267 269 271 272 272 272 273 274 274 275 276 279 282 286 290 293 295 295 295 294 292 290 289 288 287 287 287 288 289 291 293 296 299 301 304 306 308 310 310 310 310 311 313 315 316 316 317 319 322 324 325 327 327 327 326 325 323 321 318 315 312 310 307 305 303 301 300 299 298 296 295 292 290 287 284 282 279 275 272 269 266 263 261 262 263 265
267 268 269 269 270 270 271 272 273 275 278 282 286 289 292 294 294 294 293 292 291 290 289 288 287 286 286 287 287 289 293 296 299 302 304 306 307 308 309 309 310 311 312 314 315 316 318 319 322 324 326 326 327 327 327 326 325 322 320 317 315 312 309 307 305 303 302 301 300 298 297 294 292 289 286 283 280 277 273 269 265 262 259 259 259 260
269 270 270 270 270 271 272 273 275 278 281 285 288 290 292 293 293 292 291 290 289 289 289 288 286 285 285 285 286 289 293 297 299 301 303 305 306 307 308 309 309 310 312 314 315 316 318 320 322 324 325 326 327 327 328 327 326 324 322 320 317 315 312 309 307 305 304 303 302 300 299 297 294 291 289 286 283 280 277 273 269 266 264 264 264 266
272 273 273 273 273 273 274 276 278 281 283 286 288 289 291 291 290 289 288 288 289 288 288 286 285 285 286 287 289 292 295 297 298 300 303 304 305 305 307 308 309 310 312 314 315 316 318 319 322 323 325 326 327 328 328 328 327 326 324 322 319 316 313 310 308 306 305 305 304 302 301 299 297 294 291 288 285 283 279 276 272 270 268 268 269 272
270 272 274 274 275 275 276 278 279 281 283 285 287 289 290 289 288 287 286 287 287 287 287 287 287 288 289 291 292 293 295 295 297 299 302 303 304 304 306 308 309 310 312 313 315 316 318 320 322 323 325 326 327 328 328 329 328 327 326 323 321 317 314 311 308 307 306 306 305 303 302 300 298 296 293 290 287 284 280 277 273 270 269 269 270 273
266 269 271 272 273 274 275 277 278 279 281 283 285 287 288 287 286 286 286 286 287 287 286 285 286 287 289 290 291 292 292 293 295 298 301 302 302 303 306 307 309 310 312 313 314 315 317 319 322 323 324 325 327 327 328 329 329 327 326 324 321 318 315 312 309 308 308 307 305 304 303 301 299 297 295 292 289 285 281 277 274 271 270 269 271 274
263 265 267 269 270 272 273 274 275 277 279 280 282 283 284 284 284 285 286 286 285 283 281 280 280 281 284 287 288 289 289 291 294 297 300 300 301 303 305 307 309 311 312 313 314 315 317 319 322 323 324 325 326 327 328 328 328 327 326 324 322 320 317 313 311 310 309 308 307 305 304 302 300 298 296 293 290 286 282 279 275 273 271 271 273 276
261 263 265 267 268 269 270 271 273 275 276 278 279 280 281 282 282 282 282 279 276 273 272 272 273 276 279 283 285 286 287 290 294 297 299 300 301 303 305 307 309 311 312 313 314 315 317 319 322 323 324 325 325 326 327 328 328 328 326 325 323 321 318 316 314 313 312 310 309 307 305 303 301 299 297 295 291 288 284 280 276 274 273 273 275 278
261 263 264 265 266 267 268 269 271 273 275 276 278 279 281 281 281 280 277 272 267 265 265 266 269 272 275 279 281 283 286 290 293 297 299 300 301 302 305 306 308 310 312 314 315 316 317 319 321 323 324 324 325 326 327 328 328 328 327 325 324 322 320 317 316 315 314 312 310 308 306 304 302 300 298 296 293 289 285 281 278 275 274 275 277 280
260 262 263 264 264 265 266 268 270 272 273 275 277 279 280 281 280 278 276 273 270 267 266 267 268 271 273 276 278 281 285 289 293 296 298 299 300 302 304 306 307 309 312 313 314 315 316 318 321 322 323 324 325 326 327 328 328 328 327 326 325 323 321 319 317 316 316 314 312 309 307 304 302 300 298 296 293 290 287 283 279 277 276 276 278 282
259 261 262 262 263 264 265 267 269 271 273 275 277 278 278 278 277 277 276 274 273 271 270 269 270 271 273 274 277 280 283 288 292 295 296 297 299 301 303 305 307 309 311 313 314 315 315 317 319 321 322 323 324 326 327 328 328 328 328 326 325 324 322 320 318 317 317 315 313 311 308 305 302 300 298 296 294 291 288 284 281 278 277 278 280 285
258 260 261 262 263 264 265 266 268 270 273 275 276 276 276 275 275 275 275 274 272 271 270 269 269 271 272 274 276 279 283 287 291 293 294 296 298 300 302 304 307 309 311 312 313 314 315 316 317 319 320 322 324 325 326 327 328 328 327 327 326 325 323 321 319 318 318 316 315 313 310 306 303 301 298 296 293 291 288 285 282 279 277 279 282 287
259 260 261 262 263 264 265 266 268 270 273 275 276 276 275 275 276 276 275 274 272 271 269 269 269 271 272 274 277 279 282 286 289 291 293 295 298 300 302 304 306 309 310 312 313 313 314 315 316 318 319 321 322 324 326 326 327 327 327 326 326 325 324 322 320 319 318 317 316 314 312 309 305 302 299 296 294 291 288 285 282 279 278 279 283 288
260 261 262 264 265 266 267 268 269 271 274 275 275 276 276 278 279 279 278 276 274 272 271 270 271 271 272 274 276 279 282 285 287 289 292 294 297 299 301 303 306 308 310 311 312 312 313 314 315 317 318 320 321 323 325 326 326 326 326 325 325 324 324 323 321 319 318 318 317 315 313 311 308 305 302 298 295 292 288 286 282 279 277 277 281 287
262 263 265 266 267 268 269 270 272 273 274 275 276 277 279 281 282 282 281 279 276 274 273 272 272 272 273 274 276 278 281 284 286 288 290 293 295 297 300 302 305 308 309 310 310 311 311 312 314 316 317 319 320 322 324 325 325 325 325 324 324 324 324 323 321 320 319 318 317 316 315 313 310 307 304 300 296 293 289 286 282 278 276 276 279 285
264 266 268 269 270 271 272 273 274 275 275 276 278 280 283 285 286 285 283 281 279 277 275 274 273 273 273 274 276 278 280 282 284 286 289 291 293 296 299 302 304 307 308 308 308 309 309 311 312 314 316 318 319 321 322 324 325 325 324 323 323 323 324 323 322 320 319 318 317 316 315 314 311 309 306 302 298 294 289 285 281 277 274 274 276 281
266 268 270 271 272 273 273 274 275 276 277 279 281 284 287 288 288 287 285 283 281 279 277 275 274 274 274 274 275 277 279 281 283 285 287 289 292 295 298 301 303 305 306 306 307 307 308 309 311 313 315 316 318 320 321 323 324 324 323 322 321 321 322 323 322 321 319 317 316 315 315 314 312 309 307 304 300 295 291 285 279 275 272 272 273 277
269 271 272 273 273 273 273 274 275 276 279 282 285 287 289 289 288 287 286 284 282 280 278 276 275 274 274 274 274 276 277 279 281 284 286 288 291 294 297 300 302 304 304 304 305 305 306 307 309 311 313 315 317 318 320 322 324 324 323 322 320 320 320 322 322 320 318 316 315 315 314 313 312 310 308 305 302 298 293 287 280 273 270 268 269 272
271 272 273 273 272 272 272 274 276 278 281 285 287 288 288 288 288 287 285 283 282 280 279 277 276 275 274 273 273 274 275 277 279 282 284 287 290 293 295 298 300 301 302 302 303 304 305 306 308 310 312 314 315 317 319 321 323 323 323 322 320 319 319 320 321 320 317 315 314 313 313 312 311 310 308 305 302 299 295 289 282 274 268 266 266 268
272 273 273 273 272 272 273 275 278 281 284 286 287 287 287 287 287 286 285 284 283 281 280 279 277 276 274 273 273 273 274 275 277 280 282 285 288 290 293 295 297 298 299 300 301 302 304 305 306 308 310 312 314 315 318 320 322 322 322 321 319 317 316 317 318 318 316 314 312 312 311 311 311 309 308 305 302 298 295 290 283 276 269 264 262 263
273 273 274 274 274 274 276 278 280 283 284 285 285 285 286 286 286 286 286 285 285 283 282 280 278 276 275 273 272 272 273 274 276 278 280 283 285 287 290 292 294 296 297 298 300 301 302 304 305 307 309 311 312 314 317 319 320 321 321 320 319 318 317 316 316 316 314 313 311 310 309 309 309 308 307 304 301 298 294 290 284 277 270 264 260 258
273 273 274 274 275 276 277 278 280 282 283 283 283 284 285 286 287 287 288 287 286 285 283 281 278 276 275 273 273 273 272 273 274 275 277 280 282 285 287 290 292 294 295 297 298 299 301 302 304 306 307 309 311 313 316 318 319 320 320 319 318 317 317 316 315 314 313 311 309 308 307 307 307 307 305 303 301 298 294 289 283 277 270 264 258 254
271 272 272 273 273 274 275 277 278 279 280 281 283 284 286 288 289 290 289 288 287 285 283 281 278 276 275 274 274 273 273 273 273 274 275 277 280 282 285 288 290 292 294 295 296 298 299 301 302 304 306 307 309 312 315 317 318 318 318 318 317 315 314 314 313 313 311 309 307 305 304 304 305 305 304 302 300 297 293 288 282 276 270 263 257 252
269 270 270 271 271 272 273 275 277 279 281 283 285 287 289 291 291 291 290 288 287 285 282 280 278 276 275 275 275 274 274 273 273 273 274 275 278 280 284 286 289 290 292 294 295 296 298 299 301 303 304 306 308 310 314 316 317 317 317 317 315 314 312 311 311 311 309 307 305 303 302 302 302 302 302 301 298 295 291 286 281 275 269 262 256 249
268 268 268 269 270 271 273 275 278 281 284 287 289 290 291 292 291 290 289 287 286 284 282 279 277 276 275 275 275 275 275 275 274 274 274 275 277 279 282 284 287 289 290 292 294 295 296 298 299 301 302 304 307 309 312 314 315 316 316 316 315 313 311 310 309 309 308 306 304 302 301 300 300 300 300 298 296 293 288 284 279 274 268 262 255 247
267 268 268 269 271 272 275 278 281 284 286 288 289 290 290 291 290 290 288 287 286 284 282 279 278 276 276 276 275 275 275 275 275 275 275 275 277 279 281 283 285 287 289 291 292 293 294 296 297 298 300 303 305 308 310 312 314 315 316 316 315 313 311 310 308 307 307 305 304 302 300 300 299 299 298 296 293 290 286 281 276 272 268 262 255 247
268 269 270 271 272 274 277 279 281 283 285 287 288 289 289 290 290 289 289 288 286 284 282 280 279 278 277 276 275 275 274 274 274 274 275 276 277 279 281 282 284 286 288 289 291 292 293 294 295 296 299 302 305 308 310 312 313 315 316 317 316 314 312 310 308 307 306 304 303 301 299 298 298 298 297 296 293 289 283 277 273 269 266 261 255 249
269 270 271 272 273 275 277 279 280 282 284 286 287 288 289 290 290 290 289 288 287 285 283 282 280 279 277 276 275 275 274 274 273 274 275 276 278 279 280 282 283 285 287 289 290 291 291 292 293 295 298 302 305 308 310 312 313 315 316 317 316 315 312 310 308 306 304 303 302 300 298 296 295 295 295 294 292 288 283 275 270 266 264 261 256 250
271 271 272 272 273 274 276 278 280 282 284 286 288 289 290 290 290 290 289 288 287 285 284 282 280 279 277 276 275 274 274 273 273 274 274 276 277 278 280 281 283 285 287 289 290 290 291 292 293 294 297 302 306 308 310 312 314 315 316 316 316 314 312 309 307 305 303 301 300 299 297 295 293 292 293 292 291 288 282 274 268 263 262 260 256 251